Weather observations for the past three days for
Cherokee, Cherokee Municipal Airport
| Date | Time (cdt) | Wind (kph) | Vis. (km) | Weather | Sky Cond. | Temperature (ºC) | Relative Humidity | Wind Chill (°C) | Heat Index (°C) | Pressure | Precipitation (cm) | ||||||
|---|---|---|---|---|---|---|---|---|---|---|---|---|---|---|---|---|---|
| Air | Dwpt | 6 hour | altimeter (cm) | sea level (mb) | 1 hr | 3 hr | 6 hr | ||||||||||
| Max. | Min. | ||||||||||||||||
| 06 | 06:15 | E 15 | 6.44 | Fog/Mist | OVC004 | 24 | 24 | 100% | 23 | 76.2 | 0.0 | ||||||
| 06 | 05:55 | E 11 | 6.44 | Fog/Mist | OVC004 | 24 | 24 | 100% | 23 | 76.2 | 0.0 | ||||||
| 06 | 05:35 | SE 13 | 8.05 | Fog/Mist | OVC004 | 24 | 24 | 100% | 23 | 76.2 | 0.0 | ||||||
| 06 | 05:15 | SE 13 | 9.66 | Fog/Mist | OVC004 | 24 | 24 | 100% | 23 | 76.17 | 0.0 | ||||||
| 06 | 04:55 | SE 11 | 11.27 | Fog/Mist | OVC004 | 24 | 24 | 100% | 23 | 76.2 | 0.0 | ||||||
| 06 | 04:35 | SE 9 | 11.27 | Fog/Mist | OVC004 | 24 | 24 | 100% | 23 | 76.2 | 0.0 | ||||||
| 06 | 04:15 | SE 7 | 11.27 | Fog/Mist | OVC004 | 24 | 24 | 100% | 23 | 76.2 | 0.0 | ||||||
| 06 | 03:55 | SE 13 | 11.27 | Fog/Mist | OVC004 | 24 | 24 | 100% | 23 | 76.17 | 0.0 | 0.03 | |||||
| 06 | 03:35 | SE 13 | 11.27 | Fog/Mist | OVC004 | 24 | 24 | 100% | 23 | 76.17 | 0.0 | ||||||
| 06 | 03:15 | SE 11 | 11.27 | Overcast | OVC004 | 24 | 24 | 100% | 23 | 76.15 | 0.0 | ||||||
| 06 | 02:55 | E 9 | 12.87 | Mostly Cloudy | BKN006 | 24 | 24 | 100% | 23 | 76.17 | 0.0 | ||||||
| 06 | 02:15 | SE 6 | 16.09 | Fair | CLR | 24 | 24 | 100% | 23 | 76.17 | 0.0 | ||||||
| 06 | 01:55 | SE 6 | 16.09 | Fair | CLR | 25 | 24 | 94% | 26 | 76.17 | 0.0 | ||||||
| 06 | 01:35 | SE 7 | 16.09 | Fair | CLR | 25 | 24 | 94% | 26 | 76.17 | 0.0 | ||||||
| 06 | 01:15 | E 6 | 16.09 | Fair | CLR | 25 | 24 | 94% | 26 | 76.17 | 0.0 | ||||||
| 06 | 00:55 | SE 6 | 16.09 | Fair | CLR | 25 | 24 | 29.4 | 24.2 | 94% | 26 | 76.2 | 0.0 | ||||
| 06 | 00:35 | E 4 | 16.09 | Fair | CLR | 25 | 24 | 94% | 26 | 76.2 | 0.0 | ||||||
| 06 | 00:15 | NE 4 | 16.09 | Fair | CLR | 25 | 24 | 94% | 26 | 76.2 | 0.0 | ||||||
| 05 | 23:55 | Calm | 16.09 | Fair | CLR | 24 | 24 | 100% | 23 | 76.2 | 0.0 | ||||||
| 05 | 23:35 | Calm | 16.09 | Fair | CLR | 25 | 24 | 94% | 26 | 76.2 | 0.0 | ||||||
| 05 | 23:15 | Vrbl 4 | 16.09 | Fair | CLR | 25 | 24 | 94% | 26 | 76.2 | 0.0 | ||||||
| 05 | 22:55 | Vrbl 2 | 16.09 | Fair | CLR | 25 | 24 | 94% | 26 | 76.17 | 0.0 | ||||||
| 05 | 22:35 | E 6 | 16.09 | Fair | CLR | 25 | 24 | 94% | 26 | 76.17 | 0.0 | ||||||
| 05 | 22:15 | NE 7 | 16.09 | Fair | CLR | 25 | 24 | 94% | 26 | 76.17 | 0.0 | ||||||
| 05 | 21:55 | NE 7 | 16.09 | Fair | CLR | 25 | 24 | 94% | 26 | 76.17 | 0.0 | ||||||
| 05 | 21:35 | NE 4 | 16.09 | Fair | CLR | 25 | 24 | 94% | 26 | 76.17 | 0.0 | ||||||
| 05 | 21:15 | Vrbl 2 | 16.09 | Fair | CLR | 25 | 24 | 94% | 26 | 76.15 | 0.0 | ||||||
| 05 | 20:55 | E 7 | 16.09 | Fair | CLR | 25 | 24 | 94% | 26 | 76.12 | 0.0 | ||||||
| 05 | 20:35 | E 7 | 16.09 | Fair | CLR | 26 | 24 | 89% | 28 | 76.12 | 0.0 | ||||||
| 05 | 20:15 | NE 6 | 16.09 | Fair | CLR | 26 | 24 | 89% | 28 | 76.1 | 0.0 | ||||||
| 05 | 19:55 | NE 9 | 16.09 | Fair | CLR | 27 | 24 | 84% | 30 | 76.1 | 0.0 | ||||||
| 05 | 19:35 | E 11 | 16.09 | Fair | CLR | 28 | 24 | 79% | 32 | 76.07 | 0.0 | ||||||
| 05 | 19:15 | E 7 | 16.09 | Fair | CLR | 29 | 24 | 74% | 34 | 76.1 | 0.0 | ||||||
| 05 | 18:55 | E 6 | 16.09 | Fair | CLR | 29 | 24 | 30.2 | 23.1 | 74% | 34 | 76.1 | 0.0 | ||||
| 05 | 18:35 | E 15 | 16.09 | Fair | CLR | 30 | 23 | 66% | 34 | 76.07 | 0.0 | ||||||
| 05 | 18:15 | E 11 | 16.09 | Fair | CLR | 30 | 23 | 66% | 34 | 76.07 | 0.0 | ||||||
| 05 | 17:55 | E 15 | 16.09 | Fair | CLR | 30 | 23 | 66% | 34 | 76.07 | 0.0 | ||||||
| 05 | 17:35 | E 13 | 16.09 | Fair | CLR | 30 | 23 | 66% | 34 | 76.07 | 0.0 | ||||||
| 05 | 17:15 | E 19 | 16.09 | Fair | CLR | 30 | 22 | 62% | 33 | 76.07 | 0.0 | ||||||
| 05 | 16:55 | SE 11 | 16.09 | Fair | CLR | 30 | 22 | 62% | 33 | 76.07 | 0.0 | 0.03 | |||||
| 05 | 16:35 | SE 19 | 16.09 | Fair | CLR | 30 | 21 | 59% | 33 | 76.05 | 0.0 | ||||||
| 05 | 16:15 | SE 22 | 16.09 | Fair | CLR | 30 | 21 | 59% | 33 | 76.05 | 0.0 | ||||||
| 05 | 15:55 | SE 15 G 26 | 16.09 | Fair | CLR | 29 | 21 | 62% | 31 | 76.05 | 0.0 | ||||||
| 05 | 15:36 | SE 20 | 16.09 | Fair | CLR | 29 | 21 | 62% | 31 | 76.02 | 0.0 | ||||||
| 05 | 15:15 | S 17 | 16.09 | Fair | CLR | 28 | 20 | 62% | 30 | 76.05 | 0.0 | ||||||
| 05 | 14:55 | E 7 | 16.09 | Fair | CLR | 28 | 21 | 66% | 30 | 76.07 | 0.0 | ||||||
| 05 | 12:55 | SE 22 | 16.09 | Fair | CLR | 24 | 18 | 24.7 | 20.6 | 69% | 25 | 76.05 | 0.0 | ||||
| 05 | 12:35 | SW 17 | 16.09 | Fair | CLR | 24 | 20 | 78% | 24 | 76.15 | 0.0 | ||||||
| 05 | 12:15 | SE 9 | 16.09 | Fair | CLR | 24 | 19 | 74% | 25 | 76.12 | 0.0 | ||||||
| 05 | 11:55 | Vrbl 4 | 16.09 | A Few Clouds | FEW040 FEW050 FEW120 | 23 | 18 | 74% | 76.1 | 0.0 | |||||||
| 05 | 11:35 | SE 28 | 16.09 | Light Rain | FEW070 SCT090 SCT110 | 24 | 18 | 69% | 25 | 76.07 | 0.0 | ||||||
| 05 | 11:15 | N 6 | 16.09 | Overcast | FEW042 BKN080 OVC110 | 22 | 19 | 83% | 76.35 | 0.0 | |||||||
| 05 | 10:55 | N 17 | 16.09 | Light Rain | FEW031 SCT070 OVC090 | 22 | 19 | 83% | 76.33 | 0.0 | |||||||
| 05 | 10:35 | N 19 | 16.09 | Mostly Cloudy | FEW065 BKN090 BKN110 | 22 | 18 | 78% | 76.35 | 0.0 | |||||||
| 05 | 10:15 | N 13 | 16.09 | Partly Cloudy | SCT065 SCT100 | 22 | 19 | 83% | 76.38 | 0.0 | |||||||
| 05 | 09:55 | N 19 | 16.09 | Thunderstorm in Vicinity | BKN065 | 21 | 19 | 88% | 76.35 | 0.0 | |||||||
| 05 | 09:35 | N 22 | 16.09 | Thunderstorm in Vicinity | BKN065 | 22 | 18 | 78% | 76.33 | 0.0 | |||||||
| 05 | 09:15 | N 20 G 30 | 16.09 | Thunderstorm in Vicinity | FEW008 FEW034 FEW065 | 22 | 18 | 78% | 76.28 | 0.0 | |||||||
| 05 | 08:55 | N 19 G 30 | 16.09 | Thunderstorm in Vicinity Rain | SCT016 BKN028 BKN035 | 21 | 20 | 94% | 76.28 | 0.0 | |||||||
| 05 | 08:35 | N 33 G 44 | 16.09 | Thunderstorm in Vicinity Rain and Breezy | BKN016 OVC050 | 23 | 21 | 89% | 76.33 | 0.0 | |||||||
| 05 | 08:15 | NW 26 | 9.66 | Fog/Mist | FEW005 FEW013 BKN050 | 24 | 24 | 100% | 23 | 76.3 | 0.0 | ||||||
| 05 | 07:55 | NE 9 | 9.66 | Thunderstorm in Vicinity Fog/Mist | CLR | 24 | 23 | 94% | 23 | 76.17 | 0.0 | ||||||
| 05 | 07:35 | N 9 | 12.87 | Thunderstorm in Vicinity | FEW050 | 24 | 24 | 100% | 23 | 76.17 | 0.0 | ||||||
| 05 | 07:15 | N 7 | 12.87 | Thunderstorm in Vicinity | CLR | 24 | 24 | 100% | 23 | 76.12 | 0.0 | ||||||
| 05 | 06:55 | N 7 | 12.87 | Thunderstorm in Vicinity | CLR | 24 | 24 | 25 | 23.1 | 100% | 23 | 76.07 | 0.0 | ||||
| 05 | 06:35 | N 4 | 14.48 | Thunderstorm in Vicinity | CLR | 24 | 23 | 94% | 23 | 76.05 | 0.0 | ||||||
| 05 | 06:15 | NW 6 | 14.48 | Thunderstorm in Vicinity | CLR | 23 | 23 | 100% | 76.05 | 0.0 | |||||||
| 05 | 05:55 | Vrbl 2 | 14.48 | Thunderstorm in Vicinity | CLR | 23 | 23 | 100% | 76.02 | 0.0 | |||||||
| 05 | 05:35 | NE 2 | 14.48 | Fair | CLR | 23 | 23 | 100% | 76.05 | 0.0 | |||||||
| 05 | 05:15 | N 4 | 14.48 | Fair | CLR | 23 | 23 | 100% | 76.02 | 0.0 | |||||||
| 05 | 04:55 | N 7 | 12.87 | Fair | CLR | 23 | 23 | 100% | 76 | 0.0 | |||||||
| 05 | 04:35 | NE 7 | 16.09 | Fair | CLR | 24 | 23 | 94% | 23 | 76 | 0.0 | ||||||
| 05 | 04:15 | N 4 | 16.09 | Fair | CLR | 24 | 23 | 94% | 23 | 76.02 | 0.0 | ||||||
| 05 | 03:55 | N 6 | 14.48 | Fair | CLR | 24 | 23 | 94% | 23 | 76 | 0.0 | 0.03 | |||||
| 05 | 03:35 | Vrbl 2 | 14.48 | Fair | CLR | 24 | 23 | 94% | 23 | 75.97 | 0.0 | ||||||
| 05 | 03:15 | E 4 | 16.09 | Fair | CLR | 24 | 24 | 100% | 23 | 76 | 0.0 | ||||||
| 05 | 02:55 | E 6 | 16.09 | Fair | CLR | 24 | 24 | 100% | 23 | 76 | 0.0 | ||||||
| 05 | 02:35 | E 4 | 16.09 | Fair | CLR | 24 | 24 | 100% | 23 | 76.02 | 0.0 | ||||||
| 05 | 02:15 | E 2 | 14.48 | Fair | CLR | 24 | 24 | 100% | 23 | 76.02 | 0.0 | ||||||
| 05 | 01:55 | Calm | 16.09 | Fair | CLR | 24 | 24 | 100% | 23 | 76.05 | 0.0 | ||||||
| 05 | 01:35 | N 2 | 16.09 | Fair | CLR | 24 | 24 | 100% | 23 | 76.05 | 0.0 | ||||||
| 05 | 01:15 | Vrbl 4 | 16.09 | Fair | CLR | 24 | 23 | 94% | 23 | 76.05 | 0.0 | ||||||
| 05 | 00:55 | N 2 | 16.09 | Fair | CLR | 25 | 24 | 31.1 | 24.8 | 94% | 26 | 76.05 | 0.0 | ||||
| 05 | 00:35 | NE 4 | 16.09 | Fair | CLR | 25 | 24 | 94% | 26 | 76.05 | 0.0 | ||||||
| 05 | 00:15 | Vrbl 7 | 16.09 | Fair | CLR | 25 | 24 | 94% | 26 | 76.02 | 0.0 | ||||||
| 04 | 23:55 | Calm | 16.09 | Fair | CLR | 25 | 24 | 94% | 26 | 76.02 | 0.0 | ||||||
| 04 | 23:35 | N 4 | 16.09 | Fair | CLR | 25 | 24 | 94% | 26 | 76.02 | 0.0 | ||||||
| 04 | 23:15 | NE 6 | 16.09 | A Few Clouds | FEW034 | 26 | 24 | 89% | 28 | 76.02 | 0.0 | ||||||
| 04 | 22:55 | Calm | 16.09 | Mostly Cloudy | BKN032 | 26 | 25 | 94% | 28 | 76 | 0.0 | ||||||
| 04 | 22:35 | Calm | 16.09 | Mostly Cloudy | BKN032 | 26 | 25 | 94% | 28 | 76 | 0.0 | ||||||
| 04 | 22:15 | Vrbl 4 | 16.09 | Fair | CLR | 26 | 25 | 94% | 28 | 76 | 0.0 | ||||||
| 04 | 21:55 | E 6 | 16.09 | Fair | CLR | 26 | 25 | 94% | 28 | 76 | 0.0 | ||||||
| 04 | 21:35 | E 9 | 16.09 | Fair | CLR | 27 | 25 | 89% | 31 | 75.97 | 0.0 | ||||||
| 04 | 21:15 | E 9 | 16.09 | Fair | CLR | 27 | 25 | 89% | 31 | 75.97 | 0.0 | ||||||
| 04 | 20:55 | E 11 | 16.09 | Fair | CLR | 27 | 25 | 89% | 31 | 75.97 | 0.0 | ||||||
| 04 | 20:35 | E 11 | 16.09 | Fair | CLR | 28 | 25 | 84% | 33 | 75.95 | 0.0 | ||||||
| 04 | 20:15 | E 9 | 16.09 | Fair | CLR | 28 | 25 | 84% | 33 | 75.92 | 0.0 | ||||||
| 04 | 19:55 | E 7 | 16.09 | Fair | CLR | 28 | 26 | 89% | 34 | 75.92 | 0.0 | ||||||
| 04 | 19:35 | SE 7 | 16.09 | Fair | CLR | 29 | 26 | 84% | 36 | 75.92 | 0.0 | ||||||
| 04 | 19:15 | E 7 | 16.09 | Light Rain | CLR | 30 | 26 | 79% | 37 | 75.92 | 0.0 | ||||||
| 04 | 18:55 | E 7 | 16.09 | Fair | CLR | 31 | 25 | 33.5 | 31.1 | 70% | 38 | 75.92 | 0.0 | ||||
| 04 | 18:35 | SE 6 | 16.09 | Fair | CLR | 31 | 25 | 70% | 38 | 75.92 | 0.0 | ||||||
| 04 | 18:15 | E 7 | 16.09 | Fair | CLR | 32 | 25 | 67% | 39 | 75.92 | 0.0 | ||||||
| 04 | 17:35 | SE 9 | 16.09 | Fair | CLR | 33 | 24 | 59% | 39 | 75.9 | 0.0 | ||||||
| 04 | 17:15 | E 9 | 16.09 | Fair | CLR | 33 | 24 | 59% | 39 | 75.9 | 0.0 | ||||||
| 04 | 16:55 | E 11 | 16.09 | Fair | CLR | 33 | 23 | 56% | 38 | 75.9 | 0.0 | ||||||
| 04 | 16:36 | Vrbl 7 | 16.09 | Fair | CLR | 33 | 23 | 56% | 38 | 75.9 | 0.0 | ||||||
| 04 | 16:15 | E 9 | 16.09 | Fair | CLR | 33 | 23 | 56% | 38 | 75.9 | 0.0 | ||||||
| 04 | 15:55 | NE 6 | 16.09 | Fair | CLR | 33 | 23 | 56% | 38 | 75.9 | 0.0 | ||||||
| 04 | 15:35 | NE 7 | 16.09 | Fair | CLR | 33 | 23 | 56% | 38 | 75.9 | 0.0 | ||||||
| 04 | 15:16 | Vrbl 4 | 16.09 | Fair | CLR | 33 | 23 | 56% | 38 | 75.9 | 0.0 | ||||||
| 04 | 14:55 | NE 9 | 16.09 | Fair | CLR | 33 | 23 | 56% | 38 | 75.9 | 0.0 | ||||||
| 04 | 14:35 | Vrbl 4 | 16.09 | Fair | CLR | 32 | 23 | 59% | 37 | 75.9 | 0.0 | ||||||
| 04 | 14:15 | E 9 | 16.09 | Fair | CLR | 32 | 23 | 59% | 37 | 75.9 | 0.0 | ||||||
| 04 | 13:55 | E 13 | 16.09 | Fair | CLR | 32 | 23 | 59% | 37 | 75.9 | 0.0 | ||||||
| 04 | 13:35 | E 15 | 16.09 | Fair | CLR | 32 | 23 | 59% | 37 | 75.9 | 0.0 | ||||||
| 04 | 13:15 | NE 6 | 16.09 | Fair | CLR | 31 | 23 | 62% | 35 | 75.92 | 0.0 | ||||||
| 04 | 12:57 | E 13 | 16.09 | Fair | CLR | 31 | 23 | 62% | 35 | 75.9 | 0.0 | ||||||
| 04 | 12:35 | E 9 | 16.09 | Fair | CLR | 31 | 22 | 59% | 35 | 75.9 | 0.0 | ||||||
| 04 | 12:15 | NE 9 | 16.09 | Fair | CLR | 31 | 23 | 62% | 35 | 75.92 | 0.0 | ||||||
| 04 | 11:55 | Vrbl 4 | 16.09 | Fair | CLR | 30 | 22 | 62% | 33 | 75.9 | 0.0 | ||||||
| 04 | 11:35 | Vrbl 2 | 16.09 | Fair | CLR | 30 | 23 | 66% | 34 | 75.9 | 0.0 | ||||||
| 04 | 11:15 | Vrbl 2 | 16.09 | Fair | CLR | 29 | 22 | 66% | 32 | 75.9 | 0.0 | ||||||
| 04 | 10:55 | Vrbl 4 | 16.09 | Fair | CLR | 28 | 22 | 70% | 31 | 75.9 | 0.0 | ||||||
| 04 | 10:35 | Calm | 16.09 | Fair | CLR | 28 | 22 | 70% | 31 | 75.9 | 0.0 | ||||||
| 04 | 10:15 | SW 7 | 16.09 | Fair | CLR | 28 | 22 | 70% | 31 | 75.87 | 0.0 | ||||||
| 04 | 09:55 | SW 7 | 16.09 | Fair | CLR | 27 | 22 | 74% | 29 | 75.9 | 0.0 | ||||||
| 04 | 09:35 | W 6 | 16.09 | Fair | CLR | 27 | 22 | 74% | 29 | 75.9 | 0.0 | ||||||
| 04 | 09:15 | SW 11 | 16.09 | Fair | CLR | 26 | 22 | 79% | 28 | 75.87 | 0.0 | ||||||
| 04 | 08:55 | S 6 | 16.09 | Fair | CLR | 25 | 22 | 83% | 26 | 75.87 | 0.0 | ||||||
| 04 | 08:35 | S 7 | 16.09 | Fair | CLR | 25 | 22 | 83% | 26 | 75.84 | 0.0 | ||||||
| 04 | 08:15 | SW 4 | 16.09 | Fair | CLR | 23 | 22 | 94% | 75.84 | 0.0 | |||||||
| 04 | 07:55 | SW 4 | 16.09 | Fair | CLR | 22 | 22 | 100% | 75.84 | 0.0 | |||||||
| 04 | 07:35 | SW 4 | 16.09 | Fair | CLR | 21 | 21 | 100% | 75.82 | 0.0 | |||||||
| 04 | 07:15 | S 6 | 16.09 | Fair | CLR | 21 | 21 | 100% | 75.82 | 0.0 | |||||||
| 04 | 06:55 | Vrbl 2 | 16.09 | Fair | CLR | 21 | 21 | 24.6 | 20.7 | 100% | 75.82 | 0.0 | |||||
| 04 | 06:35 | SW 4 | 16.09 | Fair | CLR | 21 | 21 | 100% | 75.82 | 0.0 | |||||||
| 04 | 06:16 | S 4 | 16.09 | Fair | CLR | 21 | 21 | 100% | 75.79 | 0.0 | |||||||
| 04 | 05:55 | SW 4 | 16.09 | Fair | CLR | 21 | 21 | 100% | 75.79 | 0.0 | |||||||
| 04 | 05:35 | S 7 | 16.09 | Fair | CLR | 22 | 21 | 94% | 75.79 | 0.0 | |||||||
| 04 | 05:15 | S 6 | 16.09 | Fair | CLR | 22 | 21 | 94% | 75.79 | 0.0 | |||||||
| 04 | 04:55 | SE 6 | 16.09 | Fair | CLR | 22 | 21 | 94% | 75.79 | 0.0 | |||||||
| 04 | 04:35 | Vrbl 4 | 16.09 | Fair | CLR | 22 | 21 | 94% | 75.77 | 0.0 | |||||||
| 04 | 04:15 | SE 9 | 16.09 | Fair | CLR | 23 | 21 | 89% | 75.77 | 0.0 | |||||||
| 04 | 03:55 | Calm | 16.09 | Fair | CLR | 22 | 21 | 94% | 75.79 | 0.0 | |||||||
| 04 | 03:35 | S 7 | 16.09 | Fair | CLR | 23 | 21 | 89% | 75.77 | 0.0 | |||||||
| 04 | 03:15 | SE 4 | 16.09 | Fair | CLR | 23 | 21 | 89% | 75.77 | 0.0 | |||||||
| 04 | 02:55 | S 6 | 16.09 | Fair | CLR | 23 | 21 | 89% | 75.77 | 0.0 | |||||||
| 04 | 02:35 | SE 6 | 16.09 | Fair | CLR | 24 | 21 | 83% | 24 | 75.77 | 0.0 | ||||||
| 04 | 02:15 | SE 4 | 16.09 | Fair | CLR | 24 | 21 | 83% | 24 | 75.77 | 0.0 | ||||||
| 04 | 01:55 | S 6 | 16.09 | Fair | CLR | 24 | 22 | 89% | 24 | 75.77 | 0.0 | ||||||
| 04 | 01:35 | S 9 | 16.09 | Fair | CLR | 24 | 22 | 89% | 24 | 75.77 | 0.0 | ||||||
| 04 | 01:15 | S 7 | 16.09 | Fair | CLR | 24 | 22 | 89% | 24 | 75.77 | 0.0 | ||||||
| 04 | 00:55 | S 9 | 16.09 | Fair | CLR | 25 | 22 | 30.9 | 24.2 | 83% | 26 | 75.77 | 0.0 | 0.03 | |||
| 04 | 00:35 | S 9 | 16.09 | Fair | CLR | 24 | 22 | 89% | 24 | 75.77 | 0.0 | ||||||
| 04 | 00:15 | S 11 | 16.09 | Fair | CLR | 25 | 22 | 83% | 26 | 75.74 | 0.0 | ||||||
| 03 | 23:55 | S 9 | 16.09 | Fair | CLR | 25 | 22 | 83% | 26 | 75.74 | 0.0 | ||||||
| 03 | 23:35 | S 11 | 16.09 | Fair | CLR | 26 | 22 | 79% | 28 | 75.74 | 0.0 | ||||||
| 03 | 23:15 | S 15 | 16.09 | Fair | CLR | 27 | 22 | 74% | 29 | 75.74 | 0.0 | ||||||
| 03 | 22:55 | S 19 | 16.09 | Fair | CLR | 27 | 22 | 74% | 29 | 75.74 | 0.0 | ||||||
| 03 | 22:35 | S 15 | 16.09 | Fair | CLR | 26 | 22 | 79% | 28 | 75.74 | 0.0 | ||||||
| 03 | 22:15 | S 9 | 16.09 | Fair | CLR | 26 | 23 | 84% | 28 | 75.74 | 0.0 | ||||||
| 03 | 21:55 | Calm | 16.09 | Fair | CLR | 27 | 23 | 79% | 30 | 75.72 | 0.0 | ||||||
| 03 | 21:35 | S 11 | 12.87 | Fair | CLR | 27 | 23 | 79% | 30 | 75.72 | 0.0 | ||||||
| 03 | 21:15 | S 9 | 16.09 | Fair | CLR | 27 | 24 | 84% | 30 | 75.72 | 0.0 | ||||||
| 03 | 20:55 | S 9 | 16.09 | Fair | CLR | 27 | 24 | 84% | 30 | 75.69 | 0.0 | ||||||
| 03 | 20:35 | S 9 | 16.09 | Fair | CLR | 28 | 24 | 79% | 32 | 75.69 | 0.0 | ||||||
| 03 | 20:15 | S 11 | 16.09 | Fair | CLR | 28 | 24 | 79% | 32 | 75.67 | 0.0 | ||||||
| 03 | 19:55 | S 9 | 16.09 | Fair | CLR | 28 | 25 | 84% | 33 | 75.67 | 0.0 | ||||||
| 03 | 19:35 | S 9 | 16.09 | Fair | CLR | 29 | 25 | 79% | 35 | 75.69 | 0.0 | ||||||
| 03 | 19:15 | S 11 | 16.09 | Fair | CLR | 30 | 25 | 75% | 36 | 75.69 | 0.0 | ||||||
| 03 | 18:55 | S 11 | 16.09 | Fair | CLR | 30 | 25 | 31.9 | 29.5 | 75% | 36 | 75.69 | 0.0 | ||||
| 03 | 18:35 | S 17 | 16.09 | Fair | CLR | 31 | 24 | 66% | 37 | 75.67 | 0.0 | ||||||
| 03 | 18:15 | S 22 | 16.09 | Fair | CLR | 31 | 24 | 66% | 37 | 75.67 | 0.0 | ||||||
| 03 | 17:55 | S 30 G 39 | 16.09 | Fair | CLR | 32 | 23 | 59% | 37 | 75.64 | 0.0 | ||||||
| 03 | 17:35 | S 20 G 31 | 16.09 | Fair | CLR | 32 | 24 | 63% | 38 | 75.64 | 0.0 | ||||||
| 03 | 17:15 | S 28 | 16.09 | Fair | CLR | 32 | 24 | 63% | 38 | 75.62 | 0.0 | ||||||
| 03 | 16:55 | S 26 | 16.09 | Fair | CLR | 32 | 24 | 63% | 38 | 75.62 | 0.0 | ||||||
| 03 | 16:35 | S 30 G 35 | 16.09 | Fair | CLR | 32 | 23 | 59% | 37 | 75.62 | 0.0 | ||||||
| 03 | 16:15 | S 30 | 16.09 | Fair | CLR | 32 | 23 | 59% | 37 | 75.64 | 0.0 | ||||||
| 03 | 15:55 | S 28 | 16.09 | Fair | CLR | 32 | 23 | 59% | 37 | 75.67 | 0.0 | ||||||
| 03 | 15:35 | S 22 G 31 | 16.09 | Fair | CLR | 32 | 24 | 63% | 38 | 75.69 | 0.0 | ||||||
| 03 | 15:15 | S 19 | 16.09 | Fair | CLR | 31 | 23 | 62% | 35 | 75.69 | 0.0 | ||||||
| 03 | 14:55 | S 26 | 16.09 | Fair | CLR | 31 | 23 | 62% | 35 | 75.69 | 0.0 | 0.03 | |||||
| 03 | 14:35 | S 30 G 39 | 16.09 | Thunderstorm in Vicinity | CLR | 31 | 23 | 62% | 35 | 75.67 | 0.0 | ||||||
| 03 | 14:15 | S 26 | 16.09 | Fair | CLR | 31 | 23 | 62% | 35 | 75.69 | 0.0 | ||||||
| 03 | 13:55 | S 22 G 33 | 16.09 | Thunderstorm in Vicinity | CLR | 31 | 23 | 62% | 35 | 75.67 | 0.0 | ||||||
| 03 | 13:35 | S 30 | 16.09 | Fair | CLR | 30 | 22 | 62% | 33 | 75.67 | 0.0 | ||||||
| 03 | 13:16 | S 28 G 41 | 16.09 | Fair | CLR | 30 | 22 | 62% | 33 | 75.67 | 0.0 | ||||||
| 03 | 12:55 | S 24 | 16.09 | Fair | CLR | 30 | 22 | 30 | 23.3 | 62% | 33 | 75.72 | 0.0 | ||||
| 03 | 12:35 | S 28 G 48 | 16.09 | Fair | CLR | 30 | 22 | 62% | 33 | 75.72 | 0.0 | ||||||
| 03 | 12:15 | S 37 G 46 | 16.09 | Fair and Breezy | CLR | 30 | 22 | 62% | 33 | 75.69 | 0.0 | ||||||
| 03 | 11:55 | S 33 G 41 | 16.09 | Fair and Breezy | CLR | 30 | 21 | 59% | 33 | 75.72 | 0.0 | ||||||
| 03 | 11:35 | S 33 G 43 | 16.09 | Fair and Breezy | CLR | 30 | 21 | 59% | 33 | 75.72 | 0.0 | ||||||
| 03 | 11:15 | S 33 G 43 | 16.09 | Fair and Breezy | CLR | 30 | 21 | 59% | 33 | 75.72 | 0.0 | ||||||
| 03 | 10:55 | S 31 | 16.09 | Fair | CLR | 29 | 21 | 62% | 31 | 75.69 | 0.0 | ||||||
| 03 | 10:35 | S 31 G 43 | 16.09 | Fair | CLR | 29 | 21 | 62% | 31 | 75.69 | 0.0 | ||||||
| 03 | 10:15 | S 17 | 16.09 | A Few Clouds | FEW120 | 28 | 20 | 62% | 30 | 75.72 | 0.0 | ||||||
| 03 | 09:55 | S 19 | 16.09 | Partly Cloudy | SCT120 | 27 | 20 | 66% | 29 | 75.72 | 0.0 | ||||||
| 03 | 09:35 | S 20 | 16.09 | Partly Cloudy | SCT120 | 27 | 20 | 66% | 29 | 75.74 | 0.0 | ||||||
| 03 | 09:15 | S 20 | 16.09 | A Few Clouds | FEW120 | 26 | 21 | 74% | 27 | 75.74 | 0.0 | ||||||
| 03 | 08:55 | S 19 | 16.09 | A Few Clouds | FEW120 | 26 | 21 | 74% | 27 | 75.77 | 0.0 | 0.03 | |||||
| 03 | 08:35 | SE 17 | 16.09 | A Few Clouds | FEW110 | 25 | 20 | 74% | 26 | 75.77 | 0.0 | ||||||
| 03 | 08:15 | S 17 G 26 | 16.09 | Mostly Cloudy | BKN110 | 26 | 20 | 70% | 27 | 75.77 | 0.0 | ||||||
| 03 | 07:55 | SE 13 | 16.09 | Mostly Cloudy | BKN110 | 25 | 20 | 74% | 26 | 75.77 | 0.0 | ||||||
| 03 | 07:35 | E 6 | 16.09 | A Few Clouds | FEW120 | 24 | 20 | 78% | 24 | 75.77 | 0.0 | ||||||
| 03 | 07:15 | SE 9 | 16.09 | Partly Cloudy | SCT120 | 24 | 20 | 78% | 24 | 75.74 | 0.0 | ||||||
| 03 | 06:55 | Vrbl 6 | 16.09 | A Few Clouds | FEW110 | 24 | 20 | 26.1 | 22.7 | 78% | 24 | 75.72 | 0.0 | ||||
| 03 | 06:35 | SE 9 | 16.09 | Partly Cloudy | SCT110 | 24 | 20 | 78% | 24 | 75.74 | 0.0 | ||||||
| Date | Time (cdt) | Wind (kph) | Vis. (km) | Weather | Sky Cond. | Air | Dwpt | Max. | Min. | Relative Humidity | Wind Chill (°C) | Heat Index (°C) | altimeter (cm) | sea level (mb) | 1 hr | 3 hr | 6 hr |
| 6 hour | |||||||||||||||||
| Temperature (ºC) | Pressure | Precipitation (cm) | |||||||||||||||